Weather in Komyshuvakha

Ukraine / Luhansk Region     48°41′46″N   38°28′38″E
temp.,
°C
wind,
m/s
gust,
m/s
humid.,
%
clouds,
%
prec.,
mm/h
press.,
hPa
HPBL,
m
15 may, sat
sat1500:00+16sw33735 0.1 101147
03:00+14wsw228141 0.6 101211
06:00+14wsw2380100 0.0 101353
09:00+18sw116732 0.1 1013177
12:00+24wsw234323 0.0 10141128
15:00+25sw343938 0.0 10131984
18:00+24w235041 0.0 1013205
21:00+18wnw116142 0.0 101311
16 may, sun
sun1600:00+16nnw226821 0.0 101411
03:00+14ne22743 0.0 101412
06:00+15nne25782 0.0 1013115
09:00+22ene46615 0.0 1013529
12:00+26ene56565 0.0 10111303
15:00+27e674015 0.0 10101348
18:00+24e595010 0.0 1009543
21:00+18ene346727 0.0 100849
17 may, mon
mon1700:00+16ene3772100 0.0 1007117
03:00+15e411715 0.0 1007197
06:00+15e513675 0.0 1007311
09:00+20ese710525 0.0 1007592
12:00+25se784589 0.0 10071130
15:00+26sse674970 0.0 10061281
18:00+25se466093 0.0 1006789
21:00+19s4967100 0.0 1008238
18 may, tue
tue1800:00+16ssw3791100 0.0 1008157
03:00+15sw389088 0.0 1008237
06:00+16ssw3884100 0.0 1009427
09:00+15s4789100 0.4 1010309
12:00+23ssw565480 0.0 10091346
15:00+23s465140 1.0 10091797
18:00+21s67602 0.0 1009790
21:00+17s5107693 0.0 1009329
19 may, wed
wed1900:00+14s5128861 0.0 1009330
03:00+14ssw5129585 0.0 1009369
06:00+14s51192100 1.1 1009474
09:00+16sw71183100 1.3 1009895
12:00+20wsw71057100 0.5 10101662
15:00+20w4654100 0.7 10111516
18:00+19w345847 0.1 1011977
21:00+14sw11771 0.3 101310